| time (UTC) | temp F | wind direction | speed knots | gust knots | rain 1hr in | rain 24hr in | rain mn in | humidity % | barometer mb |
| 20260510081534 | 62 | 280 | 5.2 | 12.2 | 0.00 | 0.00 | 0.00 | 58 | 1011.7 |
| 20260510074527 | 64 | 269 | 8.7 | 11.3 | 0.00 | 0.00 | 0.00 | 54 | 1011.5 |
| 20260510073050 | 63 | 273 | 3.5 | 7.8 | 0.00 | 0.00 | 0.00 | 54 | 1011.5 |
| 20260510071506 | 64 | 192 | 2.6 | 5.2 | 0.00 | 0.00 | 0.00 | 54 | 1011.6 |
| 20260510070043 | 64 | 227 | 2.6 | 12.2 | 0.00 | 0.00 | 0.00 | 55 | 1011.5 |
| 20260510064554 | 64 | 254 | 7.8 | 13.9 | 0.00 | 0.00 | 0.00 | 56 | 1011.4 |
| 20260510063017 | 64 | 259 | 8.7 | 15.6 | 0.00 | 0.00 | 0.00 | 56 | 1011.3 |
| 20260510061543 | 64 | 263 | 7.8 | 13.9 | 0.00 | 0.00 | 0.00 | 56 | 1011.4 |
| 20260510060009 | 64 | 272 | 6.1 | 13.0 | 0.00 | 0.00 | 0.00 | 55 | 1011.4 |
| 20260510054534 | 64 | 280 | 7.8 | 14.8 | 0.00 | 0.00 | 0.00 | 54 | 1011.4 |
| 20260510053106 | 64 | 285 | 9.6 | 14.8 | 0.00 | 0.00 | 0.00 | 54 | 1011.1 |
| 20260510051530 | 65 | 235 | 8.7 | 13.9 | 0.00 | 0.00 | 0.00 | 53 | 1011.3 |
| 20260510050048 | 64 | 198 | 6.1 | 13.9 | 0.00 | 0.00 | 0.00 | 54 | 1011.3 |
| 20260510044603 | 64 | 263 | 8.7 | 12.2 | 0.00 | 0.00 | 0.00 | 55 | 1011.5 |
| 20260510043041 | 64 | 238 | 6.1 | 13.0 | 0.00 | 0.00 | 0.00 | 55 | 1011.4 |
| 20260510041545 | 65 | 315 | 6.1 | 13.0 | 0.00 | 0.00 | 0.00 | 56 | 1011.4 |
| 20260510040012 | 65 | 265 | 7.0 | 13.9 | 0.00 | 0.00 | 0.00 | 57 | 1011.2 |
| 20260510034521 | 66 | 276 | 7.0 | 13.0 | 0.00 | 0.00 | 0.00 | 57 | 1011.2 |
| 20260510033058 | 67 | 246 | 6.1 | 13.0 | 0.00 | 0.00 | 0.00 | 57 | 1011.4 |
| 20260510031521 | 66 | 246 | 4.3 | 8.7 | 0.00 | 0.00 | 0.00 | 65 | 1011.3 |
| 20260510030021 | 66 | 205 | 5.2 | 8.7 | 0.00 | 0.00 | 0.00 | 64 | 1011.2 |
| 20260510024540 | 67 | 217 | 4.3 | 9.6 | 0.00 | 0.00 | 0.00 | 63 | 1011.1 |
| 20260510023051 | 67 | 207 | 6.1 | 9.6 | 0.00 | 0.00 | 0.00 | 63 | 1011.0 |
| 20260510021521 | 68 | 252 | 4.3 | 9.6 | 0.00 | 0.00 | 0.00 | 61 | 1010.7 |
| 20260510020033 | 68 | 212 | 3.5 | 8.7 | 0.00 | 0.00 | 0.00 | 61 | 1010.6 |
| 20260510014553 | 68 | 215 | 4.3 | 8.7 | 0.00 | 0.00 | 0.00 | 61 | 1010.5 |
| 20260510013022 | 68 | 188 | 6.1 | 9.6 | 0.00 | 0.00 | 0.00 | 61 | 1010.2 |
| 20260510011547 | 68 | 219 | 6.1 | 11.3 | 0.00 | 0.00 | 0.00 | 60 | 1010.1 |
| 20260510010111 | 67 | 207 | 6.1 | 9.6 | 0.00 | 0.00 | 0.00 | 61 | 1010.0 |
| 20260510004534 | 67 | 209 | 5.2 | 10.4 | 0.00 | 0.00 | 0.00 | 61 | 1009.7 |
| 20260510003058 | 67 | 186 | 4.3 | 13.9 | 0.00 | 0.00 | 0.00 | 61 | 1009.6 |
| 20260510001527 | 67 | 204 | 5.2 | 8.7 | 0.00 | 0.00 | 0.00 | 62 | 1009.3 |
| 20260510000050 | 68 | 205 | 4.3 | 9.6 | 0.00 | 0.00 | 0.00 | 61 | 1009.1 |
| 20260509234556 | 68 | 188 | 4.3 | 7.8 | 0.00 | 0.00 | 0.00 | 61 | 1009.0 |
| 20260509233018 | 68 | 190 | 5.2 | 7.8 | 0.00 | 0.00 | 0.00 | 60 | 1009.0 |
| 20260509231544 | 68 | 155 | 3.5 | 9.6 | 0.00 | 0.00 | 0.00 | 60 | 1009.1 |
| 20260509230004 | 69 | 188 | 5.2 | 8.7 | 0.00 | 0.00 | 0.00 | 59 | 1009.0 |
| 20260509224537 | 69 | 134 | 6.1 | 11.3 | 0.00 | 0.00 | 0.00 | 58 | 1009.1 |
| 20260509223054 | 70 | 196 | 6.1 | 12.2 | 0.00 | 0.00 | 0.00 | 58 | 1009.1 |
| 20260509221508 | 70 | 173 | 3.5 | 10.4 | 0.00 | 0.00 | 0.00 | 58 | 1009.1 |
| 20260509220036 | 71 | 185 | 2.6 | 8.7 | 0.00 | 0.00 | 0.00 | 57 | 1009.0 |
| 20260509214624 | 71 | 182 | 3.5 | 7.0 | 0.00 | 0.00 | 0.00 | 57 | 1009.0 |
| 20260509213031 | 68 | 155 | 2.6 | 9.6 | 0.00 | 0.00 | 0.00 | 59 | 1009.0 |
| 20260509211542 | 68 | 198 | 2.6 | 8.7 | 0.00 | 0.00 | 0.00 | 58 | 1008.9 |
| 20260509210006 | 69 | 207 | 4.3 | 12.2 | 0.00 | 0.00 | 0.00 | 57 | 1008.9 |
| 20260509204535 | 69 | 134 | 3.5 | 8.7 | 0.00 | 0.00 | 0.00 | 59 | 1008.6 |
| 20260509203102 | 69 | 132 | 6.1 | 12.2 | 0.00 | 0.00 | 0.00 | 57 | 1008.7 |
| 20260509201519 | 69 | 175 | 3.5 | 11.3 | 0.00 | 0.00 | 0.00 | 59 | 1008.6 |
| 20260509200038 | 70 | 128 | 5.2 | 10.4 | 0.00 | 0.00 | 0.00 | 56 | 1008.7 |
| 20260509194606 | 70 | 246 | 5.2 | 12.2 | 0.00 | 0.00 | 0.00 | 56 | 1008.9 |
| 20260509193032 | 69 | 232 | 5.2 | 8.7 | 0.00 | 0.00 | 0.00 | 57 | 1009.1 |
| 20260509191559 | 70 | 235 | 3.5 | 7.8 | 0.00 | 0.00 | 0.00 | 59 | 1009.2 |
| 20260509190008 | 69 | 225 | 8.7 | 14.8 | 0.00 | 0.00 | 0.00 | 56 | 1009.5 |
| 20260509184554 | 69 | 216 | 7.8 | 14.8 | 0.00 | 0.00 | 0.00 | 55 | 1009.5 |
| 20260509183008 | 69 | 288 | 3.5 | 13.0 | 0.00 | 0.00 | 0.00 | 60 | 1009.9 |
| 20260509181542 | 68 | 186 | 4.3 | 13.9 | 0.00 | 0.00 | 0.00 | 61 | 1010.1 |
| 20260509180002 | 68 | 226 | 4.3 | 12.2 | 0.00 | 0.00 | 0.00 | 64 | 1010.4 |
| 20260509174526 | 67 | 314 | 4.3 | 12.2 | 0.00 | 0.00 | 0.00 | 66 | 1010.4 |
| 20260509173053 | 66 | 232 | 3.5 | 16.5 | 0.00 | 0.00 | 0.00 | 67 | 1010.6 |
| 20260509171509 | 65 | 126 | 9.6 | 14.8 | 0.00 | 0.00 | 0.00 | 69 | 1010.9 |
| 20260509170032 | 63 | 188 | 5.2 | 9.6 | 0.00 | 0.00 | 0.00 | 72 | 1010.8 |
| 20260509164554 | 62 | 199 | 6.1 | 10.4 | 0.00 | 0.00 | 0.00 | 71 | 1010.8 |
| 20260509163012 | 63 | 210 | 7.0 | 11.3 | 0.00 | 0.00 | 0.00 | 70 | 1011.0 |
| 20260509161541 | 62 | 190 | 5.2 | 20.0 | 0.00 | 0.00 | 0.00 | 71 | 1010.8 |
| 20260509160100 | 63 | 180 | 4.3 | 14.8 | 0.00 | 0.00 | 0.00 | 72 | 1011.0 |
| 20260509154525 | 59 | 165 | 6.1 | 16.5 | 0.00 | 0.00 | 0.00 | 74 | 1011.0 |
| 20260509153051 | 58 | 168 | 5.2 | 10.4 | 0.00 | 0.00 | 0.00 | 76 | 1010.9 |
| 20260509151558 | 57 | 165 | 8.7 | 15.6 | 0.00 | 0.00 | 0.00 | 75 | 1011.2 |
| 20260509150025 | 57 | 199 | 4.3 | 14.8 | 0.00 | 0.00 | 0.00 | 74 | 1011.4 |
| 20260509144541 | 57 | 179 | 7.0 | 13.9 | 0.00 | 0.00 | 0.00 | 73 | 1011.3 |
| 20260509143016 | 55 | 151 | 5.2 | 13.0 | 0.00 | 0.00 | 0.00 | 77 | 1011.0 |
| 20260509141536 | 53 | 127 | 5.2 | 11.3 | 0.00 | 0.00 | 0.00 | 77 | 1011.2 |
| 20260509134519 | 53 | 123 | 5.2 | 11.3 | 0.00 | 0.00 | 0.00 | 76 | 1011.6 |
| 20260509133037 | 53 | 186 | 7.0 | 14.8 | 0.00 | 0.00 | 0.00 | 75 | 1011.6 |
| 20260509131601 | 53 | 174 | 7.0 | 14.8 | 0.00 | 0.00 | 0.00 | 75 | 1011.7 |
| 20260509130032 | 53 | 188 | 9.6 | 20.0 | 0.00 | 0.00 | 0.00 | 73 | 1011.9 |
| 20260509124552 | 53 | 200 | 7.0 | 13.0 | 0.00 | 0.00 | 0.00 | 71 | 1011.8 |
| 20260509123004 | 54 | 199 | 7.0 | 12.2 | 0.00 | 0.00 | 0.00 | 68 | 1011.8 |
| 20260509121527 | 53 | 174 | 7.0 | 20.9 | 0.00 | 0.00 | 0.00 | 67 | 1011.9 |
| 20260509120051 | 55 | 196 | 7.8 | 14.8 | 0.00 | 0.00 | 0.00 | 65 | 1011.7 |
| 20260509114610 | 55 | 205 | 8.7 | 13.0 | 0.00 | 0.00 | 0.00 | 65 | 1011.8 |
| 20260509113028 | 55 | 165 | 7.8 | 16.5 | 0.00 | 0.00 | 0.00 | 63 | 1011.8 |
| 20260509111547 | 55 | 218 | 7.8 | 14.8 | 0.00 | 0.00 | 0.00 | 63 | 1011.8 |
| 20260509110003 | 55 | 188 | 8.7 | 13.9 | 0.00 | 0.00 | 0.00 | 63 | 1011.9 |
| 20260509104535 | 53 | 190 | 7.8 | 17.4 | 0.00 | 0.00 | 0.00 | 63 | 1011.8 |
| 20260509103104 | 53 | 169 | 7.8 | 14.8 | 0.00 | 0.00 | 0.00 | 63 | 1011.8 |
| 20260509101525 | 53 | 198 | 7.0 | 12.2 | 0.00 | 0.00 | 0.00 | 62 | 1011.7 |
| 20260509100040 | 52 | 173 | 6.1 | 9.6 | 0.00 | 0.00 | 0.00 | 64 | 1011.7 |
| 20260509094606 | 51 | 194 | 4.3 | 9.6 | 0.00 | 0.00 | 0.00 | 65 | 1011.6 |
| 20260509093033 | 54 | 157 | 4.3 | 10.4 | 0.00 | 0.00 | 0.00 | 61 | 1011.9 |
| 20260509091558 | 53 | 186 | 6.1 | 8.7 | 0.00 | 0.00 | 0.00 | 61 | 1012.0 |
| 20260509090022 | 54 | 175 | 5.2 | 9.6 | 0.00 | 0.00 | 0.00 | 60 | 1012.2 |
| 20260509084549 | 56 | 158 | 5.2 | 10.4 | 0.00 | 0.00 | 0.00 | 56 | 1012.3 |
| 20260509083015 | 57 | 217 | 6.1 | 11.3 | 0.00 | 0.00 | 0.00 | 55 | 1012.4 |